Stations météo

Publicité
Cherbourg, France (7024): Température de l'air & dewpoint: 20.06.2017 17:00:00 - 26.06.2017 17:00:00 (CEST)Cherbourg, France (7024): Température de l'air 5cm: 20.06.2017 17:00:00 - 26.06.2017 17:00:00 (CEST)Cherbourg, France (7024): Température de l'air -20cm & Température de l'air -100cm: 20.06.2017 17:00:00 - 26.06.2017 17:00:00 (CEST)Cherbourg, France (7024): Vitesse du vent & gusts: 20.06.2017 17:00:00 - 26.06.2017 17:00:00 (CEST)Cherbourg, France (7024): Direction du vent: 20.06.2017 17:00:00 - 26.06.2017 17:00:00 (CEST)Cherbourg, France (7024): reduced air pressure: 20.06.2017 17:00:00 - 26.06.2017 17:00:00 (CEST)Cherbourg, France (7024): visibility: 20.06.2017 17:00:00 - 26.06.2017 17:00:00 (CEST)Cherbourg, France (7024): Ensoleillement: 20.06.2017 17:00:00 - 26.06.2017 17:00:00 (CEST)Cherbourg, France (7024): Quantités de précipitations: 20.06.2017 17:00:00 - 26.06.2017 17:00:00 (CEST)
Date & Time tt [°C] td [°C] tt 5cm [°C] tt -20cm [°C] tt -100cm [°C] ff [km/h] ff [knt] fx [km/h] fx [knt] dd ppp [hPa] vv [km] sd [min] rr [mm]
26.06.2017 17:00:00 19,1 13,3 27,0 16,2 15,1 17 9 30 16 ENE 1012,6 17 60 0,0
26.06.2017 16:00:00 18,5 14,6 26,7 16,0 15,1 17 9 29 16 NE 1012,9 12 49 0,0
26.06.2017 15:00:00 20,2 13,6 26,5 15,9 15,1 13 7 22 12 ENE 1012,9 24 60 0,0
26.06.2017 14:00:00 19,4 13,6 22,0 15,8 15,1 13 7 28 15 E 1013,6 25 24 0,0
26.06.2017 13:00:00 17,7 13,0 21,8 15,8 15,1 15 8 23 12 ENE 1014,0 27 8 0,0
26.06.2017 12:00:00 17,9 12,6 21,7 15,7 15,1 13 7 22 12 E 1014,2 20 11 0,0
26.06.2017 11:00:00 17,4 12,7 21,8 15,7 15,1 7 4 16 9 NE 1014,1 18 11 0,0
26.06.2017 10:00:00 17,0 13,9 18,0 15,7 15,1 6 4 22 12 N 1014,1 23 47 0,0
26.06.2017 09:00:00 16,1 12,6 14,6 15,8 15,1 12 7 18 10 N 1013,8 26 60 0,0
26.06.2017 08:00:00 14,5 12,7 13,2 15,8 15,1 2 1 6 3 WNW 1014,6 24 60 0,0
26.06.2017 07:00:00 13,6 13,1 9,2 15,8 15,1 4 2 9 5 W 1014,8 16 31 0,2
26.06.2017 06:00:00 12,6 12,0 11,1 15,9 15,1 6 3 10 6 W 1015,1 16 0 0,0
26.06.2017 05:00:00 13,0 12,5 12,2 15,9 15,1 7 4 14 8 W 1015,2 18 0 0,0
26.06.2017 04:00:00 12,3 12,0 8,1 16,0 15,1 8 4 11 6 WSW 1015,4 20 0 0,0
26.06.2017 03:00:00 11,7 11,2 8,1 16,1 15,1 6 3 10 5 SW 1015,4 17 0 0,0
26.06.2017 02:00:00 12,1 11,5 10,6 16,1 15,1 7 4 14 8 WSW 1015,8 18 0 0,0
26.06.2017 01:00:00 12,8 12,0 11,8 16,2 15,1 10 5 16 9 SW 1016,0 19 0 0,0
26.06.2017 00:00:00 13,5 12,6 12,6 16,2 15,1 12 6 24 13 W 1016,3 21 0 0,0
25.06.2017 23:00:00 14,3 12,8 13,5 16,3 15,1 17 9 34 19 WSW 1016,4 26 0 0,0
25.06.2017 22:00:00 15,3 13,3 15,3 16,3 15,1 23 13 39 21 W 1015,8 30 0 0,0
25.06.2017 21:00:00 16,0 14,2 16,1 16,3 15,1 25 14 50 27 WSW 1015,6 20 0 0,0
25.06.2017 20:00:00 16,4 14,4 16,4 16,2 15,1 27 15 45 24 WSW 1015,6 23 0 0,0
25.06.2017 19:00:00 16,9 14,7 17,3 16,2 15,1 29 16 47 26 WSW 1015,7 15 0 0,0
25.06.2017 18:00:00 17,9 14,8 19,4 16,2 15,1 30 16 49 27 WSW 1015,9 17 27 0,0
25.06.2017 17:00:00 19,3 15,0 19,8 16,1 15,1 29 16 50 27 WSW 1015,7 18 20 0,0
25.06.2017 16:00:00 18,6 14,9 19,8 16,0 15,1 29 15 50 27 WSW 1016,1 18 1 0,0
25.06.2017 15:00:00 18,6 14,9 18,8 16,0 15,1 26 14 41 22 SW 1016,3 19 5 0,0
25.06.2017 14:00:00 17,4 14,9 18,7 15,9 15,1 26 14 40 22 SW 1016,7 20 10 0,0
25.06.2017 13:00:00 18,0 14,9 18,0 15,9 15,1 25 13 45 24 SW 1016,5 21 7 0,0
25.06.2017 12:00:00 16,6 14,2 17,7 15,9 15,1 24 13 35 19 WSW 1016,8 20 0 0,0
25.06.2017 11:00:00 16,6 13,7 16,4 15,9 15,1 20 11 39 21 SW 1016,5 21 2 0,0
25.06.2017 10:00:00 15,8 13,3 15,9 15,9 15,1 24 13 38 21 SW 1016,5 33 3 0,0
25.06.2017 09:00:00 15,4 13,4 14,8 16,0 15,1 22 12 40 22 WSW 1016,3 36 0 0,0
25.06.2017 08:00:00 14,8 13,2 13,8 16,0 15,1 23 13 37 20 WSW 1016,1 21 42 0,0
25.06.2017 07:00:00 14,1 12,7 13,1 16,0 15,1 25 13 37 20 WSW 1015,8 21 22 0,0
25.06.2017 06:00:00 13,8 12,4 13,3 16,1 15,1 26 14 41 22 WSW 1015,8 41 0 0,0
25.06.2017 05:00:00 13,9 12,8 13,3 16,2 15,2 21 12 33 18 WSW 1015,7 40 0 0,0
25.06.2017 04:00:00 14,0 12,9 13,5 16,2 15,1 20 11 36 20 WSW 1015,9 40 0 0,0
25.06.2017 03:00:00 14,2 12,9 13,6 16,2 15,1 22 12 36 20 WSW 1016,0 46 0 0,0
25.06.2017 02:00:00 14,1 13,5 13,8 16,3 15,2 25 14 40 21 WSW 1016,3 12 0 0,0
25.06.2017 01:00:00 14,6 13,8 14,2 16,3 15,2 23 12 39 21 WSW 1016,4 20 0 0,0
25.06.2017 00:00:00 15,2 14,4 14,8 16,3 15,2 26 14 40 22 WSW 1016,4 16 0 0,0
24.06.2017 23:00:00 15,3 14,8 15,0 16,3 15,2 27 14 43 23 WSW 1016,6 8 0 0,2
24.06.2017 22:00:00 16,2 15,7 16,0 16,3 15,1 26 14 47 26 SW 1015,9 6 2 0,0
24.06.2017 21:00:00 16,2 15,7 15,9 16,3 15,1 27 14 42 23 SW 1016,0 16 0 0,2
24.06.2017 20:00:00 16,3 15,7 16,0 16,3 15,2 21 11 40 21 SW 1016,2 4,2 0 0,4
24.06.2017 19:00:00 17,1 14,9 17,6 16,3 15,2 26 14 41 22 SW 1016,3 16 0 0,0
24.06.2017 18:00:00 17,5 15,1 18,2 16,2 15,2 29 16 44 24 SW 1016,7 8 0 0,0
24.06.2017 17:00:00 18,5 14,6 20,8 16,2 15,2 27 15 42 23 SW 1016,9 14 21 0,0
24.06.2017 16:00:00 18,6 15,5 19,8 16,2 15,2 24 13 50 27 SW 1017,3 12 7 0,0
24.06.2017 15:00:00 17,9 14,4 17,6 16,1 15,2 31 17 46 25 SW 1017,8 15 4 0,0
24.06.2017 14:00:00 17,2 14,3 16,3 16,1 15,2 27 15 48 26 SW 1018,0 15 0 0,0
24.06.2017 13:00:00 15,9 14,9 16,4 16,1 15,2 27 15 40 22 SW 1018,1 5 0 0,2
24.06.2017 12:00:00 16,1 15,5 15,5 16,1 15,2 25 13 40 21 SW 1018,0 3,1 0 0,0
24.06.2017 11:00:00 15,5 14,7 15,3 16,1 15,1 24 13 39 21 SW 1018,2 3,6 0 0,0
24.06.2017 10:00:00 15,3 14,5 15,3 16,2 15,2 23 12 35 19 SW 1018,5 3,2 0 0,0
24.06.2017 09:00:00 15,4 13,8 15,6 16,2 15,2 24 13 40 22 SW 1018,3 10 0 0,0
24.06.2017 08:00:00 15,5 12,8 14,9 16,2 15,1 23 12 39 21 SW 1018,0 26 28 0,0
24.06.2017 07:00:00 14,8 12,5 14,1 16,3 15,2 20 11 43 23 SW 1018,3 26 28 0,0
24.06.2017 06:00:00 14,3 12,5 13,5 16,3 15,2 26 14 41 22 SW 1018,4 18 0 0,0
24.06.2017 05:00:00 14,5 12,7 13,9 16,4 15,2 25 14 45 25 SW 1018,6 20 0 0,0
24.06.2017 04:00:00 15,4 13,4 14,3 16,4 15,2 29 15 42 23 SW 1019,1 21 0 0,0
24.06.2017 03:00:00 15,1 13,6 14,4 16,4 15,2 25 13 43 23 SW 1019,4 20 0 0,0
24.06.2017 02:00:00 15,4 14,1 15,0 16,5 15,2 27 14 42 23 WSW 1019,8 18 0 0,0
24.06.2017 01:00:00 15,3 14,2 13,8 16,5 15,1 24 13 37 20 SW 1020,1 15 0 0,0
24.06.2017 00:00:00 14,6 13,6 13,4 16,6 15,1 17 9 26 14 SSW 1020,2 13 0 0,0
23.06.2017 23:00:00 14,5 13,0 13,5 16,6 15,1 14 8 33 18 SSW 1020,3 20 0 0,0
23.06.2017 22:00:00 15,6 12,7 15,1 16,6 15,2 19 11 37 20 SW 1020,3 33 36 0,0
23.06.2017 21:00:00 17,0 11,7 16,6 16,6 15,2 24 13 41 22 SW 1020,4 17 30 0,0
23.06.2017 20:00:00 17,1 12,4 17,5 16,6 15,1 27 15 44 24 WSW 1020,5 23 4 0,0
23.06.2017 19:00:00 18,0 12,4 19,4 16,6 15,1 26 14 41 22 WSW 1020,7 33 19 0,0
23.06.2017 18:00:00 18,3 12,3 19,7 16,5 15,1 26 14 43 23 SW 1020,6 34 10 0,0
23.06.2017 17:00:00 18,3 12,7 19,8 16,5 15,1 29 15 41 22 WSW 1020,6 38 7 0,0
23.06.2017 16:00:00 18,4 11,9 19,1 16,5 15,1 25 14 40 22 SW 1020,6 42 5 0,0
23.06.2017 15:00:00 18,0 12,4 19,5 16,4 15,2 27 15 45 24 SW 1020,8 42 3 0,0
23.06.2017 14:00:00 19,1 11,9 16,8 16,4 15,1 22 12 37 20 SW 1020,6 49 19 0,0
23.06.2017 13:00:00 16,8 12,1 18,1 16,4 15,1 23 12 39 21 SW 1021,1 53 0 0,0
23.06.2017 12:00:00 17,2 12,1 16,6 16,4 15,1 21 11 39 21 WSW 1020,7 24 0 0,0
23.06.2017 11:00:00 15,5 11,7 15,6 16,5 15,1 20 11 37 20 WSW 1020,7 51 0 0,0
23.06.2017 10:00:00 14,9 11,3 14,6 16,5 15,1 24 13 40 21 WSW 1020,4 31 0 0,0
23.06.2017 09:00:00 14,2 11,2 14,0 16,6 15,1 24 13 37 20 W 1020,0 32 0 0,0
23.06.2017 08:00:00 13,9 10,9 13,6 16,7 15,1 22 12 39 21 W 1019,6 38 0 0,0
23.06.2017 07:00:00 13,7 10,9 13,4 16,8 15,1 25 13 40 21 W 1019,1 36 0 0,0
23.06.2017 06:00:00 13,7 11,4 13,5 16,9 15,1 24 13 39 21 W 1018,7 34 0 0,0
23.06.2017 05:00:00 13,9 11,4 13,6 16,9 15,1 25 13 40 21 WSW 1018,4 36 0 0,0
23.06.2017 04:00:00 14,5 11,6 14,1 17,0 15,1 24 13 38 20 W 1018,3 36 0 0,0
23.06.2017 03:00:00 14,3 13,5 13,0 17,1 15,1 17 9 28 15 WSW 1018,2 19 0 0,0
23.06.2017 02:00:00 14,6 13,1 13,8 17,1 15,1 19 11 32 17 WSW 1018,1 31 0 0,0
23.06.2017 01:00:00 14,3 13,5 13,2 17,2 15,1 16 9 24 13 WSW 1018,0 17 0 0,0
23.06.2017 00:00:00 14,2 12,9 13,2 17,3 15,1 15 8 23 12 WSW 1017,7 27 0 0,0
22.06.2017 23:00:00 14,5 13,2 13,6 17,4 15,1 15 8 28 15 WSW 1017,3 27 0 0,0
22.06.2017 22:00:00 15,6 13,4 15,0 17,4 15,1 20 11 33 18 WSW 1016,8 45 5 0,0
22.06.2017 21:00:00 17,1 13,4 17,8 17,4 15,0 24 13 38 21 W 1016,6 58 45 0,0
22.06.2017 20:00:00 17,7 13,0 18,0 17,4 15,0 24 13 42 23 W 1016,6 44 22 0,0
22.06.2017 19:00:00 18,4 12,8 18,9 17,4 15,0 30 16 45 24 W 1016,3 20 36 0,0
22.06.2017 18:00:00 19,3 13,2 19,7 17,4 15,0 29 16 44 24 W 1016,1 18 29 0,0
22.06.2017 17:00:00 19,8 13,3 20,7 17,4 15,0 29 16 45 24 W 1015,9 18 39 0,0
22.06.2017 16:00:00 19,3 13,5 22,0 17,4 15,0 29 16 42 23 W 1015,9 19 16 0,0
22.06.2017 15:00:00 19,7 13,8 21,4 17,4 15,0 24 13 41 22 W 1015,7 20 26 0,0
22.06.2017 14:00:00 19,7 13,8 21,6 17,4 15,0 29 15 41 22 W 1015,7 19 26 0,0
22.06.2017 13:00:00 18,9 14,4 19,9 17,4 15,0 27 14 40 21 WSW 1015,7 20 13 0,0
22.06.2017 12:00:00 18,1 15,0 17,1 17,4 15,0 23 13 37 20 W 1015,8 20 0 0,0
22.06.2017 11:00:00 16,8 15,5 16,8 17,5 14,9 25 13 37 20 WSW 1015,2 8 0 0,0
22.06.2017 10:00:00 16,2 15,6 16,3 17,5 14,9 26 14 38 21 WSW 1014,9 6 0 0,0
22.06.2017 09:00:00 15,9 15,4 16,2 17,6 14,9 21 11 30 16 W 1014,7 4,2 0 0,0
22.06.2017 08:00:00 15,8 15,5 15,5 17,7 14,9 22 12 31 17 WSW 1014,2 3,8 0 0,0
22.06.2017 07:00:00 15,5 15,2 15,2 17,8 14,9 20 11 29 16 WSW 1014,2 1,2 0 0,0
22.06.2017 06:00:00 15,2 14,7 15,1 17,9 14,9 19 11 28 15 WSW 1014,0 2,5 0 0,0
22.06.2017 05:00:00 15,6 15,3 15,0 18,0 14,9 14 8 26 14 WSW 1013,8 2,6 0 0,0
22.06.2017 04:00:00 15,3 14,8 14,5 18,1 14,9 20 11 28 15 W 1013,9 3,5 0 0,0
22.06.2017 03:00:00 15,7 14,4 14,2 18,2 14,9 19 10 29 16 W 1014,2 16 0 0,0
22.06.2017 02:00:00 15,4 14,9 14,9 18,3 14,9 12 7 22 12 W 1014,4 0,1 0 0,0
22.06.2017 01:00:00 17,9 15,2 16,0 18,4 14,9 9 5 22 12 SSE 1014,2 13 0 0,0
22.06.2017 00:00:00 19,1 15,6 16,6 18,4 14,8 13 7 18 10 W 1014,1 14 0 0,0
21.06.2017 23:00:00 19,1 16,9 16,8 18,4 14,8 11 6 14 8 SW 1014,1 11 0 0,0
21.06.2017 22:00:00 20,4 17,4 18,5 18,4 14,9 8 5 12 6 W 1013,8 9 36 0,0
21.06.2017 21:00:00 24,9 19,5 25,7 18,3 14,8 7 4 10 5 W 1013,4 17 54 0,0
21.06.2017 20:00:00 25,3 19,2 28,3 18,2 14,8 8 4 12 7 W 1013,3 19 60 0,0
21.06.2017 19:00:00 27,1 18,9 31,4 18,1 14,8 11 6 20 11 WNW 1013,1 20 60 0,0
21.06.2017 18:00:00 29,1 20,3 35,5 17,9 14,8 6 4 14 7 WSW 1012,8 19 60 0,0
21.06.2017 17:00:00 25,2 19,6 31,5 17,8 14,8 5 3 26 14 NNW 1013,4 14 60 0,0
21.06.2017 16:00:00 26,4 19,5 36,0 17,6 14,8 14 8 24 13 WNW 1013,4 14 60 0,0
21.06.2017 15:00:00 31,3 16,9 39,4 17,4 14,8 17 9 28 15 S 1012,9 12 60 0,0
21.06.2017 14:00:00 30,7 19,4 37,6 17,3 14,8 16 9 25 14 S 1013,1 11 60 0,0
21.06.2017 13:00:00 29,3 21,0 33,9 17,2 14,8 15 8 23 13 S 1013,4 10 60 0,0
21.06.2017 12:00:00 28,2 21,0 31,3 17,2 14,8 11 6 18 10 SSE 1013,5 11 60 0,0
21.06.2017 11:00:00 27,0 20,3 26,7 17,2 14,7 10 5 15 8 S 1013,7 16 60 0,0
21.06.2017 10:00:00 25,0 18,9 22,8 17,2 14,8 8 4 16 9 SE 1013,6 14 60 0,0
21.06.2017 09:00:00 22,4 16,9 20,1 17,2 14,7 11 6 20 11 ESE 1013,6 12 60 0,0
21.06.2017 08:00:00 21,0 16,4 18,1 17,3 14,7 9 5 31 17 E 1013,5 15 26 0,0
21.06.2017 07:00:00 19,3 15,8 16,4 17,3 14,7 16 9 24 13 ESE 1013,4 15 0 0,0
21.06.2017 06:00:00 18,0 15,8 16,4 17,3 14,7 12 7 21 11 E 1013,7 11 0 0,0
21.06.2017 05:00:00 18,5 15,9 16,7 17,4 14,7 13 7 19 10 E 1013,8 11 0 0,0
21.06.2017 04:00:00 19,1 16,3 16,8 17,5 14,7 13 7 22 12 E 1014,1 12 0 0,0
21.06.2017 03:00:00 18,2 15,8 16,6 17,5 14,7 11 6 17 9 E 1014,6 11 0 0,0
21.06.2017 02:00:00 18,8 15,8 17,1 17,5 14,7 12 6 22 12 E 1015,2 13 0 0,0
21.06.2017 01:00:00 20,0 15,6 18,0 17,6 14,7 13 7 27 14 E 1015,6 16 0 0,0
21.06.2017 00:00:00 20,0 15,4 17,8 17,6 14,7 17 9 33 18 E 1015,8 18 0 0,0
20.06.2017 23:00:00 19,8 14,4 17,8 17,7 14,7 20 11 31 17 ENE 1015,8 21 0 0,0
20.06.2017 22:00:00 20,3 15,1 19,0 17,6 14,6 20 11 34 19 ENE 1015,6 16 35 0,0
20.06.2017 21:00:00 21,9 16,2 21,7 17,6 14,7 19 11 31 17 ENE 1015,5 12 44 0,0
20.06.2017 20:00:00 23,1 15,9 24,2 17,5 14,7 20 11 36 19 ENE 1015,2 18 60 0,0
20.06.2017 19:00:00 24,0 15,5 27,6 17,4 14,6 23 12 34 18 ENE 1015,2 18 60 0,0
20.06.2017 18:00:00 25,0 15,9 30,5 17,4 14,6 18 10 33 18 ENE 1015,4 19 60 0,0
20.06.2017 17:00:00 26,0 16,0 33,9 17,3 14,6 21 11 34 19 ENE 1015,6 20 60 0,0

tt = Température de l'air
td = dewpoint
tt 5cm = Température de l'air 5cm
tt -20cm = Température de l'air -20cm
tt -100cm = Température de l'air -100cm
ff = Vitesse du vent
fx = gusts
dd = Direction du vent
ppp = reduced air pressure
vv = visibility
sd = Ensoleillement
rr = Quantités de précipitations

stations d'obs. à proximité